Ann Arbor, MI

4:58 AM EDT on August 29, 2016 (GMT -0400)
Ann Arbor Municipal

Weather History for KARB - November, 2011

Change the Weather History Date:

Saturday, November 26, 2011

  Actual Average Record
Temperature  
Mean Temperature 50 °F -  
Max Temperature 60 °F 43 °F 60 °F (2011)
Min Temperature 41 °F 28 °F 17 °F (1996)
Degree Days  
Heating Degree Days 14    
Moisture  
Dew Point 43 °F    
Average Humidity 72    
Maximum Humidity 89    
Minimum Humidity 62    
Precipitation  
Precipitation 0.00 in - - ()
Sea Level Pressure  
Sea Level Pressure 29.97 in    
Wind  
Wind Speed 7 mph (SSW)    
Max Wind Speed 13 mph    
Max Gust Speed 21 mph    
Visibility 10 miles    
Events      
Averages and records for this station are not official NWS values.
T = Trace of Precipitation, MM = Missing Value Source: NWS Daily Summary

Daily Weather History Graph

Daily Weather History Graph

Search for Another Location

Airport or City:

Trip Planner

Search our weather history database for the weather conditions in past years. The results will help you decide how hot, cold, wet, or windy it might be!

Date:

Astronomy

Nov. 26, 2011 Rise Set
Actual Time 7:38 AM EST 5:05 PM EST
Civil Twilight 7:07 AM EST 5:36 PM EST
Nautical Twilight 6:32 AM EST 6:11 PM EST
Astronomical Twilight 5:59 AM EST 6:44 PM EST
Moon 9:09 AM EST (11/26) 6:34 PM EST (11/26)
Length of Visible Light 10h 29m
Length of Day
9h 27m
Waxing Crescent, 3% of the Moon is Illuminated
Nov 26
Waxing Crescent
Dec 2
First Quarter
Dec 10
Full
Dec 17
Last Quarter
Dec 24
New

Hourly Weather History & Observations

Time (EST) Temp. Windchill Dew Point Humidity Pressure Visibility Wind Dir Wind Speed Gust Speed Precip Events Conditions
1:53 AM 41.0 °F 39.0 °F 37.9 °F 89% 30.03 in 10.0 mi South 3.5 mph - N/A   Clear
2:53 AM 44.1 °F 42.5 °F 37.9 °F 79% 30.03 in 10.0 mi South 3.5 mph - N/A   Clear
3:53 AM 44.1 °F 41.5 °F 37.9 °F 79% 30.03 in 10.0 mi SSW 4.6 mph - N/A   Clear
4:53 AM 45.0 °F 41.8 °F 37.9 °F 76% 30.03 in 10.0 mi SSW 5.8 mph - N/A   Clear
5:53 AM 44.1 °F 41.5 °F 37.9 °F 79% 30.02 in 10.0 mi SSW 4.6 mph - N/A   Clear
6:53 AM 45.0 °F 41.8 °F 37.0 °F 74% 30.02 in 10.0 mi SSW 5.8 mph - N/A   Clear
7:53 AM 45.0 °F 42.6 °F 37.0 °F 74% 30.03 in 10.0 mi SSW 4.6 mph - N/A   Clear
8:53 AM 46.0 °F 42.5 °F 37.9 °F 73% 30.04 in 10.0 mi SSW 6.9 mph - N/A   Clear
9:53 AM 48.9 °F - 39.9 °F 71% 30.03 in 10.0 mi South 10.4 mph - N/A   Clear
10:53 AM 52.0 °F - 42.1 °F 69% 30.03 in 10.0 mi SSW 9.2 mph 18.4 mph N/A   Clear
11:53 AM 55.0 °F - 44.1 °F 67% 30.01 in 10.0 mi SSW 11.5 mph - N/A   Mostly Cloudy
12:53 PM 55.9 °F - 45.0 °F 67% 29.99 in 10.0 mi SSW 8.1 mph - N/A   Partly Cloudy
1:53 PM 60.1 °F - 46.9 °F 62% 29.95 in 10.0 mi SSW 11.5 mph 20.7 mph N/A   Partly Cloudy
2:53 PM 60.1 °F - 48.0 °F 64% 29.94 in 10.0 mi SSW 11.5 mph 19.6 mph N/A   Clear
3:53 PM 60.1 °F - 48.0 °F 64% 29.93 in 10.0 mi SSW 9.2 mph 18.4 mph N/A   Clear
4:53 PM 60.1 °F - 48.0 °F 64% 29.92 in 10.0 mi South 10.4 mph 18.4 mph N/A   Mostly Cloudy
5:53 PM 59.0 °F - 48.0 °F 67% 29.92 in 10.0 mi South 10.4 mph - N/A   Overcast
6:53 PM 59.0 °F - 46.9 °F 64% 29.92 in 10.0 mi SSW 12.7 mph - N/A   Overcast
7:53 PM 57.0 °F - 48.9 °F 74% 29.92 in 10.0 mi SSW 10.4 mph 18.4 mph 0.00 in   Overcast
8:53 PM 55.0 °F - 50.0 °F 83% 29.91 in 10.0 mi South 5.8 mph - 0.00 in   Overcast
9:53 PM 55.0 °F - 48.0 °F 77% 29.88 in 10.0 mi South 5.8 mph - N/A   Overcast
11:53 PM 57.0 °F - 46.9 °F 69% 29.86 in 10.0 mi South 6.9 mph - N/A   Overcast